カタログに戻る

CZ-11 R/B

運用中LEO
NORAD 43872·ROCKET BODY·🇨🇳 China

打ち上げ Dec 21, 2018 から Jiuquan Satellite Launch Center

Loading…

次のパス (今後24時間)

TLE

最新Source: Space-Track

元期: Sep 13, 2026, 11:35 UTC

1 43872U 18108B   26256.48276980 -.00000164  00000-0 -41841-4 0  9992
2 43872 100.3624 335.7524 0331259  46.4031 316.4118 14.01888241395279

AllMySatでCZ-11 R/Bをリアルタイム追跡

Download on the App Store